User: anonymous   Login
Location: Oshawa
(43.9000°N, 78.8670°W)
Time: 06:13:13
(UTC-05:00)
Language:

Iridium 46 - Orbit

View from above orbital plane
View from above orbital plane
View from above satellite
View from above satellite

Ground track
Ground track

The orbit data is extracted from the following two-line orbital elements,

1 24905U 97043C   17326.59786629 +.00000022 +00000-0 +88322-6 0  9997
2 24905 086.4006 189.2375 0001760 097.8037 262.3358 14.34220314060536
Epoch (UTC): 22 November 2017 14:20:55
Eccentricity: 0.0001760
inclination: 86.4006°
perigee height: 776 km
apogee height: 779 km
right ascension of ascending node: 189.2375°
argument of perigee: 97.8037°
revolutions per day: 14.34220314
mean anomaly at epoch: 262.3358°
orbit number at epoch: 6053

The dashed part of the orbit path shows where the satellite is in the earth's shadow,  

DLR